Home > Weather > Kalamata > Past weeks

Flag for Greece Past Weather in Kalamata, Greece — Yesterday and Last 2 Weeks

Now
93 °F

Passing clouds.


Feels Like: 91 °F
Forecast: 70 / 90 °F
Wind: 6 mph from North

Location: Kalamata Airport

Current Time: Jul 25, 2016 at 11:22:08 AM

Latest Report: Jul 25, 2016 at 10:50 AM


Visibility: N/A

Pressure: 29.83 "Hg

Humidity: 28%

Dew Point: 55 °F

Location of KalamataLocation

Past Weather in Kalamata — Graph

°F

Kalamata Temperature Yesterday

Maximum temperature yesterday: 91 °F (at 11:50 AM)
Minimum temperature yesterday: 68 °F (at 12:20 AM)
Average temperature yesterday: 80 °F

High & Low Weather Summary for the Past Weeks

 TemperatureHumidityPressure
High95 °F (Jul 15, 11:20 AM)94% (Jul 13, 1:20 AM)29.98 "Hg (Jul 13, 1:20 AM)
Low63 °F (Jul 22, 5:50 AM)26% (Jul 15, 11:20 AM)29.71 "Hg (Jul 15, 5:20 PM)
Average78 °F59%29.87 "Hg
* Reported Jul 10 9:20 AM — Jul 25 9:50 AM, Kalamata, Weather by CustomWeather, © 2016

Note: Actual official high and low records may vary slightly from our data, if they occured in-between our weather recording intervals... More about our weather records

Advertising

Kalamata Weather History for the Previous 24 Hours

Scroll right to see more
 ConditionsComfort  
Time TempWeatherWind HumidityBarometerVisibility
9:50 AM
Mon, Jul 25
88 °FSunny.7 mph43%29.83 "Hg10 mi
9:20 AM84 °FSunny.9 mph43%29.83 "Hg10 mi
8:50 AM81 °FSunny.9 mph51%29.83 "Hg10 mi
8:20 AM77 °FSunny.8 mph57%29.83 "Hg10 mi
7:50 AM73 °FSunny.5 mph61%29.83 "Hg10 mi
7:20 AM73 °FClear.9 mph57%29.83 "Hg10 mi
6:50 AM70 °FClear.7 mph69%29.83 "Hg10 mi
6:20 AM70 °FClear.8 mph69%29.83 "Hg10 mi
5:50 AM72 °FClear.7 mph65%29.80 "Hg10 mi
5:20 AM70 °FClear.6 mph69%29.80 "Hg10 mi
4:50 AM72 °FClear.No wind65%29.80 "Hg10 mi
4:20 AM72 °FClear.No wind65%29.83 "Hg10 mi
3:50 AM72 °FClear.No wind69%29.83 "Hg10 mi
3:20 AM70 °FClear.5 mph73%29.83 "Hg10 mi
2:50 AM70 °FClear.5 mph78%29.83 "Hg10 mi
1:50 AM72 °FClear.No wind73%29.83 "Hg10 mi
1:20 AM73 °FClear.No wind74%29.83 "Hg10 mi
12:50 AM73 °FClear.No wind74%29.83 "Hg10 mi
12:20 AM72 °FClear.No wind78%29.86 "Hg10 mi
11:50 PM
Sun, Jul 24
73 °FClear.No wind78%29.86 "Hg10 mi
11:20 PM73 °FClear.No wind78%29.86 "Hg10 mi
10:50 PM75 °FClear.No wind74%29.86 "Hg10 mi
10:20 PM75 °FPassing clouds.No wind74%29.86 "HgN/A
9:50 PM75 °FPassing clouds.No wind74%29.86 "HgN/A
9:20 PM77 °FPassing clouds.No wind74%29.83 "HgN/A
8:50 PM81 °FPassing clouds.No wind62%29.83 "HgN/A
8:20 PM84 °FPassing clouds.No wind55%29.83 "HgN/A
7:50 PM84 °FPassing clouds.No wind55%29.83 "HgN/A
7:20 PM86 °FPassing clouds.5 mph49%29.83 "HgN/A
6:50 PM88 °FPassing clouds.8 mph46%29.83 "HgN/A
6:20 PM90 °FPassing clouds.6 mph38%29.83 "HgN/A
5:50 PM91 °FPassing clouds.9 mph32%29.83 "HgN/A
5:20 PM91 °FPassing clouds.12 mph30%29.83 "HgN/A
4:50 PM91 °FPassing clouds.12 mph30%29.83 "HgN/A
4:20 PM91 °FPassing clouds.10 mph30%29.83 "HgN/A
3:50 PM91 °FPassing clouds.12 mph30%29.83 "HgN/A
3:20 PM91 °FPassing clouds.14 mph30%29.83 "HgN/A
2:50 PM91 °FPassing clouds.12 mph30%29.83 "HgN/A
2:20 PM90 °FPassing clouds.12 mph38%29.86 "HgN/A
1:50 PM90 °FPassing clouds.12 mph38%29.86 "HgN/A
1:20 PM90 °FPassing clouds.12 mph38%29.86 "HgN/A
12:50 PM90 °FPassing clouds.9 mph33%29.86 "HgN/A
12:20 PM91 °FSunny.9 mph28%29.86 "Hg10 mi
11:50 AM91 °FSunny.7 mph36%29.86 "Hg10 mi
11:20 AM90 °FSunny.5 mph36%29.86 "Hg10 mi
Weather by CustomWeather, © 2016

See weather overviewHow to use our weather pages